TimeMST,TemperatureF,Dew PointF,Humidity,Sea Level PressureIn,VisibilityMPH,Wind Direction,Wind SpeedMPH,Gust SpeedMPH,PrecipitationIn,Events,Conditions,WindDirDegrees,DateUTC
12:53 AM,19.9,14.0,78,30.29,10.0,SSW,8.1,-,N/A,,Clear,210,2012-12-04 07:53:00
1:53 AM,19.9,12.9,74,30.28,10.0,SSW,6.9,-,N/A,,Clear,210,2012-12-04 08:53:00
2:53 AM,19.9,12.9,74,30.32,10.0,South,4.6,-,N/A,,Clear,190,2012-12-04 09:53:00
3:53 AM,17.1,10.9,77,30.35,10.0,SSW,5.8,-,N/A,,Clear,200,2012-12-04 10:53:00
4:53 AM,18.0,10.9,74,30.39,10.0,SW,5.8,-,N/A,,Clear,220,2012-12-04 11:53:00
5:53 AM,17.1,10.0,74,30.41,10.0,SSW,4.6,-,N/A,,Clear,200,2012-12-04 12:53:00
6:53 AM,16.0,10.0,77,30.47,10.0,Calm,Calm,-,N/A,,Clear,0,2012-12-04 13:53:00
7:53 AM,17.1,10.0,74,30.50,10.0,South,4.6,-,N/A,,Clear,170,2012-12-04 14:53:00
8:53 AM,25.0,12.0,58,30.48,10.0,Calm,Calm,-,N/A,,Clear,0,2012-12-04 15:53:00
9:53 AM,28.9,12.0,49,30.45,10.0,Calm,Calm,-,N/A,,Partly Cloudy,0,2012-12-04 16:53:00
10:53 AM,33.1,10.0,38,30.42,10.0,Calm,Calm,-,N/A,,Partly Cloudy,0,2012-12-04 17:53:00
11:53 AM,39.0,10.0,30,30.36,10.0,Calm,Calm,-,N/A,,Clear,0,2012-12-04 18:53:00
12:53 PM,42.1,10.9,28,30.34,10.0,Variable,3.5,-,N/A,,Scattered Clouds,0,2012-12-04 19:53:00
1:53 PM,44.1,8.1,23,30.31,10.0,NNE,5.8,-,N/A,,Mostly Cloudy,30,2012-12-04 20:53:00
2:53 PM,43.0,12.0,28,30.31,10.0,North,5.8,-,N/A,,Overcast,10,2012-12-04 21:53:00
3:53 PM,39.9,12.9,33,30.36,10.0,NE,6.9,-,N/A,,Overcast,40,2012-12-04 22:53:00
4:53 PM,33.1,12.9,43,30.39,10.0,NNW,4.6,-,N/A,,Clear,330,2012-12-04 23:53:00
5:53 PM,30.9,15.1,52,30.43,10.0,SW,4.6,-,N/A,,Scattered Clouds,220,2012-12-05 00:53:00
6:53 PM,26.1,15.1,63,30.46,10.0,South,5.8,-,N/A,,Clear,190,2012-12-05 01:53:00
7:53 PM,26.1,16.0,66,30.47,10.0,South,6.9,-,N/A,,Clear,180,2012-12-05 02:53:00
8:53 PM,26.1,15.1,63,30.43,10.0,SW,9.2,-,N/A,,Clear,220,2012-12-05 03:53:00
9:53 PM,21.0,14.0,74,30.45,10.0,SW,4.6,-,N/A,,Clear,220,2012-12-05 04:53:00
10:53 PM,24.1,15.1,69,30.39,10.0,South,8.1,-,N/A,,Clear,190,2012-12-05 05:53:00
11:53 PM,25.0,15.1,66,30.32,10.0,Calm,Calm,-,N/A,,Clear,0,2012-12-05 06:53:00